User: anonymous   Login
Location: Unspecified
(0.0000°N, 0.0000°E)
Time: 14:57:59
(UTC+00:00)
Language:

Vela 3B - Orbit

View from above orbital plane
View from above orbital plane
View from above satellite
View from above satellite

Ground track
Ground track

The orbit data is extracted from the following two-line orbital elements,

1 01459U 65058B   16247.97921536 -.00001346  00000-0  00000+0 0  9999
2 01459   8.0679  63.4270 4536991 295.6787 357.0847  0.21429146 40393
Epoch (UTC): 03 September 2016 23:30:04
Eccentricity: 0.4536991
inclination: 8.0679°
perigee height: 58062 km
apogee height: 165097 km
right ascension of ascending node: 63.4270°
argument of perigee: 295.6787°
revolutions per day: 0.21429146
mean anomaly at epoch: 357.0847°
orbit number at epoch: 4039

The dashed part of the orbit path shows where the satellite is in the earth's shadow,  

DLR